Tracking 19638 objects as of 19-May-2019
HD Live streaming from Space Station
objects crossing your sky now

INTELSAT 2 (PAS 2)

Track INTELSAT 2 (PAS 2) now!
INTELSAT 2 (PAS 2) is classified as:


NORAD ID: 23175
Int'l Code: 1994-040A
Perigee: 36,064.8 km
Apogee: 36,134.4 km
Inclination: 7.9 °
Period: 1,451.8 minutes
Semi major axis: 42470 km
RCS: 6.3096 m2 (large)
Launch date: July 8, 1994
Source: United States (US)
Launch site: FRENCH GUIANA (FRGUI)

12 Ku-band; Asia-Pacific.
aabbcc
Your satellite tracking list
Your tracking list is empty




NASA's NSSDC Master Catalog

Two Line Element Set (TLE):
1 23175U 94040A   19136.84318654 +.00000011 +00000-0 +00000-0 0  9996
2 23175 007.8626 051.7132 0008200 339.2439 041.3903 00.99190534089974
Source of the keplerian elements: AFSPC